TimeCST,TemperatureF,Dew PointF,Humidity,Sea Level PressureIn,VisibilityMPH,Wind Direction,Wind SpeedMPH,Gust SpeedMPH,PrecipitationIn,Events,Conditions,WindDirDegrees,DateUTC
12:02 AM,60.8,30.2,31,29.75,8.0,Calm,Calm,-,N/A,,Partly Cloudy,0,2013-02-28 06:02:00
12:50 AM,55.4,32.0,41,30.18,8.0,Calm,Calm,-,N/A,,Partly Cloudy,0,2013-02-28 06:50:00
1:46 AM,55.4,35.6,47,30.15,8.0,Calm,Calm,-,N/A,,Partly Cloudy,0,2013-02-28 07:46:00
3:40 AM,51.8,37.4,58,30.15,8.0,Calm,Calm,-,N/A,,Partly Cloudy,0,2013-02-28 09:40:00
5:16 AM,48.2,37.4,66,30.15,8.0,Calm,Calm,-,N/A,,Partly Cloudy,0,2013-02-28 11:16:00
6:02 AM,48.2,37.4,66,29.79,8.0,Calm,Calm,-,N/A,,Partly Cloudy,0,2013-02-28 12:02:00
6:56 AM,48.2,37.4,66,30.18,10.0,Calm,Calm,-,N/A,,Clear,0,2013-02-28 12:56:00
7:45 AM,51.8,37.4,58,30.18,9.0,Calm,Calm,-,N/A,,Clear,0,2013-02-28 13:45:00
8:54 AM,60.8,39.2,45,29.88,9.0,Calm,Calm,-,N/A,,Scattered Clouds,0,2013-02-28 14:54:00
9:45 AM,68.0,39.2,35,30.24,9.0,Calm,Calm,-,N/A,,Mostly Cloudy,0,2013-02-28 15:45:00
10:48 AM,73.4,41.0,31,30.21,9.0,Calm,Calm,-,N/A,,Scattered Clouds,0,2013-02-28 16:48:00
11:44 AM,78.8,41.0,26,29.80,9.0,SSW,6.9,-,N/A,,Scattered Clouds,200,2013-02-28 17:44:00
12:43 PM,80.6,42.8,26,30.15,9.0,West,3.5,-,N/A,,Mostly Cloudy,260,2013-02-28 18:43:00
1:43 PM,84.2,41.0,22,30.12,10.0,Calm,Calm,-,N/A,,Scattered Clouds,0,2013-02-28 19:43:00
2:49 PM,87.8,39.2,18,29.64,10.0,SW,4.6,-,N/A,,Scattered Clouds,220,2013-02-28 20:49:00
3:48 PM,89.6,39.2,17,30.03,10.0,WSW,11.5,-,N/A,,Scattered Clouds,240,2013-02-28 21:48:00
4:41 PM,87.8,37.4,17,30.03,10.0,SW,19.6,-,N/A,,Scattered Clouds,230,2013-02-28 22:41:00
5:49 PM,86.0,37.4,18,29.64,10.0,West,19.6,-,N/A,,Scattered Clouds,260,2013-02-28 23:49:00
6:49 PM,80.6,39.2,23,30.03,10.0,WSW,17.3,-,N/A,,Scattered Clouds,240,2013-03-01 00:49:00
7:43 PM,73.4,37.4,27,30.06,8.0,WSW,6.9,-,N/A,,Clear,240,2013-03-01 01:43:00
8:41 PM,71.6,37.4,29,29.71,8.0,WSW,6.9,-,N/A,,Clear,240,2013-03-01 02:41:00
9:50 PM,68.0,37.4,33,30.11,8.0,NW,5.8,-,N/A,,Clear,310,2013-03-01 03:50:00
10:50 PM,64.4,35.6,34,30.12,8.0,West,5.8,-,N/A,,Clear,280,2013-03-01 04:50:00
11:49 PM,62.6,39.2,42,29.76,8.0,Calm,Calm,-,N/A,,Clear,0,2013-03-01 05:49:00